START_TIME,STEP,MOV.,EG07,t_acc.,EG08,t_acc.,EG09,t_acc.,EB05,t_acc.,EBP05,t_acc.
1979-03-01 03:00:12.280 ,5,0,0.,1.2,0.,1.2,0.,1.2,,0.0,,0.0
1979-03-01 03:00:13.480 ,5,0,0.,1.2,0.,1.2,0.,1.2,,0.0,,0.0
1979-03-01 03:00:14.680 ,5,0,0.,1.2,0.,1.2,0.,1.2,,0.0,,0.0
1979-03-01 03:00:15.880 ,5,0,0.,1.2,0.,1.2,0.,1.2,,0.0,,0.0
1979-03-01 03:00:17.080 ,5,0,0.,1.2,0.,1.2,0.,1.2,,0.0,,0.0
1979-03-01 03:00:18.280 ,5,0,0.,1.2,0.,1.2,0.,1.2,,0.0,,0.0
1979-03-01 03:00:19.480 ,5,0,0.,1.2,0.,1.2,0.,1.2,,0.0,,0.0
1979-03-01 03:00:20.680 ,5,0,0.,1.2,0.,1.2,0.,1.2,,0.0,,0.0
1979-03-01 03:00:21.880 ,5,0,0.,1.2,0.,1.2,0.,1.2,,0.0,,0.0
1979-03-01 03:00:23.080 ,5,0,0.,1.2,0.,1.2,0.,1.2,,0.0,,0.0
1979-03-01 03:00:24.280 ,5,0,0.,1.2,0.,1.2,0.,1.2,,0.0,,0.0
1979-03-01 03:00:25.480 ,5,0,0.,1.2,0.,1.2,0.,1.2,,0.0,,0.0
1979-03-01 03:00:26.680 ,5,0,0.,1.2,0.,1.2,0.,1.2,,0.0,,0.0
1979-03-01 03:00:27.880 ,5,0,0.,1.2,0.,1.2,0.,1.2,,0.0,,0.0
1979-03-01 03:00:29.080 ,5,0,0.,1.2,0.,1.2,0.,1.2,,0.0,,0.0
1979-03-01 03:00:30.280 ,5,0,0.,1.2,0.,1.2,0.,1.2,,0.0,,0.0
1979-03-01 03:00:31.480 ,5,0,0.,1.2,0.,1.2,0.,1.2,,0.0,,0.0
1979-03-01 03:00:32.680 ,5,0,0.,1.2,0.,1.2,0.,1.2,,0.0,,0.0
1979-03-01 03:00:33.880 ,5,0,0.,1.2,0.,1.2,0.,1.2,,0.0,,0.0
1979-03-01 03:00:35.080 ,5,0,0.,1.2,0.,1.2,0.,1.2,,0.0,,0.0
1979-03-01 03:00:36.280 ,6,0,0.,1.2,0.,1.2,0.,1.2,,0.0,,0.0
1979-03-01 03:00:37.480 ,6,0,0.,1.2,0.,1.2,0.,1.2,,0.0,,0.0
1979-03-01 03:00:38.680 ,6,0,0.,1.2,0.,1.2,0.,1.2,,0.0,,0.0
1979-03-01 03:00:39.880 ,6,0,0.,1.2,0.,1.2,0.,1.2,,0.0,,0.0
1979-03-01 03:00:41.080 ,6,0,0.,1.2,0.,1.2,0.,1.2,,0.0,,0.0
1979-03-01 03:00:42.280 ,6,0,0.,1.2,0.,1.2,0.,1.2,,0.0,,0.0
1979-03-01 03:00:43.480 ,6,0,0.,1.2,0.,1.2,0.,1.2,,0.0,,0.0
1979-03-01 03:00:44.680 ,6,0,0.,1.2,0.,1.2,0.,1.2,,0.0,,0.0
1979-03-01 03:00:45.880 ,6,0,0.,1.2,0.,1.2,0.,1.2,,0.0,,0.0
1979-03-01 03:00:47.080 ,6,0,0.,1.2,0.,1.2,0.,1.2,,0.0,,0.0
1979-03-01 03:00:48.280 ,6,0,0.,1.2,0.,1.2,0.,1.2,,0.0,,0.0
1979-03-01 03:00:49.480 ,6,0,0.,1.2,0.,1.2,0.,1.2,,0.0,,0.0
1979-03-01 03:00:50.680 ,6,0,0.,1.2,0.,1.2,0.,1.2,,0.0,,0.0
1979-03-01 03:00:51.880 ,6,0,0.,1.2,0.,1.2,0.,1.2,,0.0,,0.0
1979-03-01 03:00:53.080 ,6,0,0.,1.2,0.,1.2,0.,1.2,,0.0,,0.0
1979-03-01 03:00:54.280 ,6,0,0.,1.2,0.,1.2,0.,1.2,,0.0,,0.0
1979-03-01 03:00:55.480 ,6,0,0.,1.2,0.,1.2,0.,1.2,,0.0,,0.0
1979-03-01 03:00:56.680 ,6,0,0.,1.2,0.,1.2,0.,1.2,,0.0,,0.0
1979-03-01 03:00:57.880 ,6,0,0.,1.2,0.,1.2,0.,1.2,,0.0,,0.0
1979-03-01 03:00:59.080 ,6,0,0.,1.2,0.,1.2,0.,1.2,,0.0,,0.0
1979-03-01 03:01:00.280 ,7,0,0.,1.2,0.,1.2,0.,1.2,,0.0,,0.0
1979-03-01 03:01:01.480 ,7,0,0.,1.2,0.,1.2,0.,1.2,,0.0,,0.0
1979-03-01 03:01:02.680 ,7,0,0.,1.2,0.,1.2,0.,1.2,,0.0,,0.0
1979-03-01 03:01:03.880 ,7,0,0.,1.2,0.,1.2,0.,1.2,,0.0,,0.0
1979-03-01 03:01:05.080 ,7,0,0.,1.2,0.,1.2,0.,1.2,,0.0,,0.0
1979-03-01 03:01:06.280 ,7,0,0.,1.2,0.,1.2,0.,1.2,,0.0,,0.0
1979-03-01 03:01:07.480 ,7,0,0.,1.2,0.,1.2,0.,1.2,,0.0,,0.0
1979-03-01 03:01:08.680 ,7,0,0.,1.2,0.,1.2,0.,1.2,,0.0,,0.0
1979-03-01 03:01:09.880 ,7,0,0.,1.2,0.,1.2,0.,1.2,,0.0,,0.0
1979-03-01 03:01:11.080 ,7,0,,0,,0,,0,,0,,0
1979-03-01 03:01:12.280 ,7,0,0.,1.2,0.,1.2,0.,1.2,,0.0,,0.0
1979-03-01 03:01:13.480 ,7,0,0.,1.2,0.,1.2,0.,1.2,,0.0,,0.0
1979-03-01 03:01:14.680 ,7,0,0.,1.2,0.,1.2,0.,1.2,,0.0,,0.0
1979-03-01 03:01:15.880 ,7,0,0.,1.2,0.,1.2,0.,1.2,,0.0,,0.0
1979-03-01 03:01:17.080 ,7,0,0.,1.2,0.,1.2,0.,1.2,,0.0,,0.0
1979-03-01 03:01:18.280 ,7,0,0.,1.2,0.,1.2,0.,1.2,,0.0,,0.0
1979-03-01 03:01:19.480 ,7,0,0.,1.2,0.,1.2,0.,1.2,,0.0,,0.0
1979-03-01 03:01:20.680 ,7,0,0.,1.2,0.,1.2,0.,1.2,,0.0,,0.0
1979-03-01 03:01:21.880 ,7,0,0.,1.2,0.,1.2,0.,1.2,,0.0,,0.0
1979-03-01 03:01:23.080 ,7,0,0.,1.2,0.,1.2,0.,1.2,,0.0,,0.0
1979-03-01 03:01:24.280 ,7,0,0.,1.2,0.,1.2,0.,1.2,,0.0,,0.0
1979-03-01 03:01:25.480 ,7,0,0.,1.2,0.,1.2,0.,1.2,,0.0,,0.0
1979-03-01 03:01:26.680 ,7,0,0.,1.2,0.,1.2,0.,1.2,,0.0,,0.0
1979-03-01 03:01:27.880 ,7,0,0.,1.2,0.,1.2,0.,1.2,,0.0,,0.0
1979-03-01 03:01:29.080 ,7,0,0.,1.2,0.,1.2,0.,1.2,,0.0,,0.0
1979-03-01 03:01:30.280 ,7,0,0.,1.2,0.,1.2,0.,1.2,,0.0,,0.0
1979-03-01 03:01:31.480 ,7,0,0.,1.2,0.,1.2,0.,1.2,,0.0,,0.0
1979-03-01 03:01:32.680 ,7,0,0.,1.2,0.,1.2,0.,1.2,,0.0,,0.0
1979-03-01 03:01:33.880 ,7,0,0.,1.2,0.,1.2,0.,1.2,,0.0,,0.0
1979-03-01 03:01:35.080 ,7,0,0.,1.2,0.,1.2,0.,1.2,,0.0,,0.0
1979-03-01 03:01:36.280 ,7,0,0.,1.2,0.,1.2,0.,1.2,,0.0,,0.0
1979-03-01 03:01:37.480 ,7,0,0.,1.2,0.,1.2,0.,1.2,,0.0,,0.0
1979-03-01 03:01:38.680 ,7,0,0.,1.2,0.,1.2,0.,1.2,,0.0,,0.0
1979-03-01 03:01:39.880 ,7,0,0.,1.2,0.,1.2,0.,1.2,,0.0,,0.0
1979-03-01 03:01:41.080 ,7,0,0.,1.2,0.,1.2,0.,1.2,,0.0,,0.0
1979-03-01 03:01:42.280 ,7,0,0.,1.2,0.,1.2,0.,1.2,,0.0,,0.0
1979-03-01 03:01:43.480 ,7,0,0.,1.2,0.,1.2,0.,1.2,,0.0,,0.0
1979-03-01 03:01:44.680 ,7,0,0.,1.2,0.,1.2,0.,1.2,,0.0,,0.0
1979-03-01 03:01:45.880 ,7,0,0.,1.2,0.,1.2,0.,1.2,,0.0,,0.0
1979-03-01 03:01:47.080 ,7,0,0.,1.2,0.,1.2,0.,1.2,,0.0,,0.0
1979-03-01 03:01:48.280 ,6,0,0.,1.2,0.,1.2,0.,1.2,,0.0,,0.0
1979-03-01 03:01:49.480 ,6,0,0.,1.2,0.,1.2,0.,1.2,,0.0,,0.0
1979-03-01 03:01:50.680 ,6,0,0.,1.2,0.,1.2,0.,1.2,,0.0,,0.0
1979-03-01 03:01:51.880 ,6,0,0.,1.2,0.,1.2,0.,1.2,,0.0,,0.0
1979-03-01 03:01:53.080 ,6,0,0.,1.2,0.,1.2,0.,1.2,,0.0,,0.0
1979-03-01 03:01:54.280 ,6,0,0.,1.2,0.,1.2,0.,1.2,,0.0,,0.0
1979-03-01 03:01:55.480 ,6,0,0.,1.2,0.,1.2,0.,1.2,,0.0,,0.0
1979-03-01 03:01:56.680 ,6,0,0.,1.2,0.,1.2,0.,1.2,,0.0,,0.0
1979-03-01 03:01:57.880 ,6,0,0.,1.2,0.,1.2,0.,1.2,,0.0,,0.0
1979-03-01 03:01:59.080 ,6,0,0.,1.2,0.,1.2,0.,1.2,,0.0,,0.0
1979-03-01 03:02:00.280 ,6,0,0.,1.2,0.,1.2,0.,1.2,,0.0,,0.0
1979-03-01 03:02:01.480 ,6,0,0.,1.2,0.,1.2,0.,1.2,,0.0,,0.0
1979-03-01 03:02:02.680 ,6,0,0.,1.2,0.,1.2,0.,1.2,,0.0,,0.0
1979-03-01 03:02:03.880 ,6,0,0.,1.2,0.,1.2,0.,1.2,,0.0,,0.0
1979-03-01 03:02:05.080 ,6,0,0.,1.2,0.,1.2,0.,1.2,,0.0,,0.0
1979-03-01 03:02:06.280 ,6,0,0.,1.2,0.,1.2,0.,1.2,,0.0,,0.0
1979-03-01 03:02:07.480 ,6,0,0.,1.2,0.,1.2,0.,1.2,,0.0,,0.0
1979-03-01 03:02:08.680 ,6,0,0.,1.2,0.,1.2,0.,1.2,,0.0,,0.0
1979-03-01 03:02:09.880 ,6,0,0.,1.2,0.,1.2,0.,1.2,,0.0,,0.0
1979-03-01 03:02:11.080 ,6,0,0.,1.2,0.,1.2,0.,1.2,,0.0,,0.0
1979-03-01 03:02:12.280 ,5,0,0.,1.2,0.,1.2,0.,1.2,,0.0,,0.0
1979-03-01 03:02:13.480 ,5,0,0.,1.2,0.,1.2,0.,1.2,,0.0,,0.0
1979-03-01 03:02:14.680 ,5,0,0.,1.2,0.,1.2,0.,1.2,,0.0,,0.0
1979-03-01 03:02:15.880 ,5,0,0.,1.2,0.,1.2,0.,1.2,,0.0,,0.0
1979-03-01 03:02:17.080 ,5,0,0.,1.2,0.,1.2,0.,1.2,,0.0,,0.0
1979-03-01 03:02:18.280 ,5,0,0.,1.2,0.,1.2,0.,1.2,,0.0,,0.0
1979-03-01 03:02:19.480 ,5,0,0.,1.2,0.,1.2,0.,1.2,,0.0,,0.0
1979-03-01 03:02:20.680 ,5,0,,0,,0,,0,,0,,0
1979-03-01 03:02:21.880 ,5,0,0.,1.2,0.,1.2,0.,1.2,,0.0,,0.0
1979-03-01 03:02:23.080 ,5,0,0.,1.2,0.,1.2,0.,1.2,,0.0,,0.0
1979-03-01 03:02:24.280 ,5,0,,0,,0,,0,,0,,0
1979-03-01 03:02:25.480 ,5,0,0.,1.2,0.,1.2,0.,1.2,,0.0,,0.0
1979-03-01 03:02:26.680 ,5,0,0.,1.2,0.,1.2,0.,1.2,,0.0,,0.0
1979-03-01 03:02:27.880 ,5,0,0.,1.2,0.,1.2,0.,1.2,,0.0,,0.0
1979-03-01 03:02:29.080 ,5,0,0.,1.2,0.,1.2,0.,1.2,,0.0,,0.0
1979-03-01 03:02:30.280 ,5,0,0.,1.2,0.,1.2,0.,1.2,,0.0,,0.0
1979-03-01 03:02:31.480 ,5,0,0.,1.2,0.,1.2,0.,1.2,,0.0,,0.0
1979-03-01 03:02:32.680 ,5,0,0.,1.2,0.,1.2,0.,1.2,,0.0,,0.0
1979-03-01 03:02:33.880 ,5,0,0.,1.2,0.,1.2,0.,1.2,,0.0,,0.0
1979-03-01 03:02:35.080 ,5,0,0.,1.2,0.,1.2,0.,1.2,,0.0,,0.0
1979-03-01 03:02:36.280 ,4,0,0.,1.2,0.,1.2,0.,1.2,,0.0,,0.0
1979-03-01 03:02:37.480 ,4,0,0.,1.2,0.,1.2,0.,1.2,,0.0,,0.0
1979-03-01 03:02:38.680 ,4,0,0.,1.2,0.,1.2,0.,1.2,,0.0,,0.0
1979-03-01 03:02:39.880 ,4,0,0.,1.2,0.,1.2,0.,1.2,,0.0,,0.0
1979-03-01 03:02:41.080 ,4,0,0.,1.2,0.,1.2,0.,1.2,,0.0,,0.0
1979-03-01 03:02:42.280 ,4,0,0.,1.2,0.,1.2,0.,1.2,,0.0,,0.0
1979-03-01 03:02:43.480 ,4,0,0.,1.2,0.,1.2,0.,1.2,,0.0,,0.0
1979-03-01 03:02:44.680 ,4,0,0.,1.2,0.,1.2,0.,1.2,,0.0,,0.0
1979-03-01 03:02:45.880 ,4,0,0.,1.2,0.,1.2,0.,1.2,,0.0,,0.0
1979-03-01 03:02:47.080 ,4,0,0.,1.2,0.,1.2,0.,1.2,,0.0,,0.0
1979-03-01 03:02:48.280 ,4,0,0.,1.2,0.,1.2,0.,1.2,,0.0,,0.0
1979-03-01 03:02:49.480 ,4,0,0.,1.2,0.,1.2,0.,1.2,,0.0,,0.0
1979-03-01 03:02:50.680 ,4,0,0.,1.2,0.,1.2,0.,1.2,,0.0,,0.0
1979-03-01 03:02:51.880 ,4,0,0.,1.2,0.,1.2,0.,1.2,,0.0,,0.0
1979-03-01 03:02:53.080 ,4,0,0.,1.2,0.,1.2,0.,1.2,,0.0,,0.0
1979-03-01 03:02:54.280 ,4,0,0.,1.2,0.,1.2,0.,1.2,,0.0,,0.0
1979-03-01 03:02:55.480 ,4,0,0.,1.2,0.,1.2,0.,1.2,,0.0,,0.0
1979-03-01 03:02:56.680 ,4,0,0.,1.2,0.,1.2,0.,1.2,,0.0,,0.0
1979-03-01 03:02:57.880 ,4,0,0.,1.2,0.,1.2,0.,1.2,,0.0,,0.0
1979-03-01 03:02:59.080 ,4,0,0.,1.2,0.,1.2,0.,1.2,,0.0,,0.0
1979-03-01 03:03:00.280 ,3,0,0.,1.2,0.,1.2,0.,1.2,,0.0,,0.0
1979-03-01 03:03:01.480 ,3,0,0.,1.2,0.,1.2,0.,1.2,,0.0,,0.0
1979-03-01 03:03:02.680 ,3,0,0.,1.2,0.,1.2,0.,1.2,,0.0,,0.0
1979-03-01 03:03:03.880 ,3,0,0.,1.2,0.,1.2,0.,1.2,,0.0,,0.0
1979-03-01 03:03:05.080 ,3,0,0.,1.2,0.,1.2,0.,1.2,,0.0,,0.0
1979-03-01 03:03:06.280 ,3,0,0.,1.2,0.,1.2,0.,1.2,,0.0,,0.0
1979-03-01 03:03:07.480 ,3,0,0.,1.2,0.,1.2,0.,1.2,,0.0,,0.0
1979-03-01 03:03:08.680 ,3,0,0.,1.2,0.,1.2,0.,1.2,,0.0,,0.0
1979-03-01 03:03:09.880 ,3,0,0.,1.2,0.,1.2,0.,1.2,,0.0,,0.0
1979-03-01 03:03:11.080 ,3,0,0.,1.2,0.,1.2,0.,1.2,,0.0,,0.0
1979-03-01 03:03:12.280 ,3,0,0.,1.2,0.,1.2,0.,1.2,,0.0,,0.0
1979-03-01 03:03:13.480 ,3,0,0.,1.2,0.,1.2,0.,1.2,,0.0,,0.0
1979-03-01 03:03:14.680 ,3,0,0.,1.2,0.,1.2,0.,1.2,,0.0,,0.0
1979-03-01 03:03:15.880 ,3,0,0.,1.2,0.,1.2,0.,1.2,,0.0,,0.0
1979-03-01 03:03:17.080 ,3,0,0.,1.2,0.,1.2,0.,1.2,,0.0,,0.0
1979-03-01 03:03:18.280 ,3,0,0.,1.2,0.,1.2,0.,1.2,,0.0,,0.0
1979-03-01 03:03:19.480 ,3,0,0.,1.2,0.,1.2,0.,1.2,,0.0,,0.0
1979-03-01 03:03:20.680 ,3,0,0.,1.2,0.,1.2,0.,1.2,,0.0,,0.0
1979-03-01 03:03:21.880 ,3,0,0.,1.2,0.,1.2,0.,1.2,,0.0,,0.0
1979-03-01 03:03:23.080 ,3,0,0.,1.2,0.,1.2,0.,1.2,,0.0,,0.0
1979-03-01 03:03:24.280 ,2,0,0.,1.2,0.,1.2,0.,1.2,,0.0,,0.0
1979-03-01 03:03:25.480 ,2,0,0.,1.2,0.,1.2,0.,1.2,,0.0,,0.0
1979-03-01 03:03:26.680 ,2,0,0.,1.2,0.,1.2,0.,1.2,,0.0,,0.0
1979-03-01 03:03:27.880 ,2,0,0.,1.2,0.,1.2,0.,1.2,,0.0,,0.0
1979-03-01 03:03:29.080 ,2,0,0.,1.2,0.,1.2,0.,1.2,,0.0,,0.0
1979-03-01 03:03:30.280 ,2,0,0.,1.2,0.,1.2,0.,1.2,,0.0,,0.0
1979-03-01 03:03:31.480 ,2,0,0.,1.2,0.,1.2,0.,1.2,,0.0,,0.0
1979-03-01 03:03:32.680 ,2,0,0.,1.2,0.,1.2,0.,1.2,,0.0,,0.0
1979-03-01 03:03:33.880 ,2,0,0.,1.2,0.,1.2,0.,1.2,,0.0,,0.0
1979-03-01 03:03:35.080 ,2,0,0.,1.2,0.,1.2,0.,1.2,,0.0,,0.0
1979-03-01 03:03:36.280 ,2,0,0.,1.2,0.,1.2,0.,1.2,,0.0,,0.0
1979-03-01 03:03:37.480 ,2,0,0.,1.2,0.,1.2,0.,1.2,,0.0,,0.0
1979-03-01 03:03:38.680 ,2,0,0.,1.2,0.,1.2,0.,1.2,,0.0,,0.0
1979-03-01 03:03:39.880 ,2,0,0.,1.2,0.,1.2,0.,1.2,,0.0,,0.0
1979-03-01 03:03:41.080 ,2,0,0.,1.2,0.,1.2,0.,1.2,,0.0,,0.0
1979-03-01 03:03:42.280 ,2,0,0.,1.2,0.,1.2,0.,1.2,,0.0,,0.0
1979-03-01 03:03:43.480 ,2,0,0.,1.2,0.,1.2,0.,1.2,,0.0,,0.0
1979-03-01 03:03:44.680 ,2,0,0.,1.2,0.,1.2,0.,1.2,,0.0,,0.0
1979-03-01 03:03:45.880 ,2,0,0.,1.2,0.,1.2,0.,1.2,,0.0,,0.0
1979-03-01 03:03:47.080 ,2,0,0.,1.2,0.,1.2,0.,1.2,,0.0,,0.0
1979-03-01 03:03:48.280 ,1,0,0.,1.2,0.,1.2,0.,1.2,,0.0,,0.0
1979-03-01 03:03:49.480 ,1,0,0.,1.2,0.,1.2,0.,1.2,,0.0,,0.0
1979-03-01 03:03:50.680 ,1,0,0.,1.2,0.,1.2,0.,1.2,,0.0,,0.0
1979-03-01 03:03:51.880 ,1,0,0.,1.2,0.,1.2,0.,1.2,,0.0,,0.0
1979-03-01 03:03:53.080 ,1,0,0.,1.2,0.,1.2,0.,1.2,,0.0,,0.0
1979-03-01 03:03:54.280 ,1,0,0.,1.2,0.,1.2,0.,1.2,,0.0,,0.0
1979-03-01 03:03:55.480 ,1,0,0.,1.2,0.,1.2,0.,1.2,,0.0,,0.0
1979-03-01 03:03:56.680 ,1,0,0.,1.2,0.,1.2,0.,1.2,,0.0,,0.0
1979-03-01 03:03:57.880 ,1,0,0.,1.2,0.,1.2,0.,1.2,,0.0,,0.0
1979-03-01 03:03:59.080 ,1,0,0.,1.2,0.,1.2,0.,1.2,,0.0,,0.0
1979-03-01 03:04:00.280 ,1,0,0.,1.2,0.,1.2,0.,1.2,,0.0,,0.0
1979-03-01 03:04:01.480 ,1,0,0.,1.2,0.,1.2,0.,1.2,,0.0,,0.0
1979-03-01 03:04:02.680 ,1,0,0.,1.2,0.,1.2,0.,1.2,,0.0,,0.0
1979-03-01 03:04:03.880 ,1,0,0.,1.2,0.,1.2,0.,1.2,,0.0,,0.0
1979-03-01 03:04:05.080 ,1,0,0.,1.2,0.,1.2,0.,1.2,,0.0,,0.0
1979-03-01 03:04:06.280 ,1,0,0.,1.2,0.,1.2,0.,1.2,,0.0,,0.0
1979-03-01 03:04:07.480 ,1,0,0.,1.2,0.,1.2,0.,1.2,,0.0,,0.0
1979-03-01 03:04:08.680 ,1,0,,0,,0,,0,,0,,0
1979-03-01 03:04:09.880 ,1,0,0.,1.2,0.,1.2,0.,1.2,,0.0,,0.0
1979-03-01 03:04:11.080 ,1,0,0.,1.2,0.,1.2,0.,1.2,,0.0,,0.0
1979-03-01 03:04:12.280 ,0,0,0.,1.2,0.,1.2,0.,1.2,,0.0,,0.0
1979-03-01 03:04:13.480 ,0,0,0.,1.2,0.,1.2,0.,1.2,,0.0,,0.0
1979-03-01 03:04:14.680 ,0,0,0.,1.2,0.,1.2,0.,1.2,,0.0,,0.0
1979-03-01 03:04:15.880 ,0,0,0.,1.2,0.,1.2,0.,1.2,,0.0,,0.0
1979-03-01 03:04:17.080 ,0,0,0.,1.2,0.,1.2,0.,1.2,,0.0,,0.0
1979-03-01 03:04:18.280 ,0,0,0.,1.2,0.,1.2,0.,1.2,,0.0,,0.0
1979-03-01 03:04:19.480 ,0,0,0.,1.2,0.,1.2,0.,1.2,,0.0,,0.0
1979-03-01 03:04:20.680 ,0,0,0.,1.2,0.,1.2,0.,1.2,,0.0,,0.0
1979-03-01 03:04:21.880 ,0,0,0.,1.2,0.,1.2,0.,1.2,,0.0,,0.0
1979-03-01 03:04:23.080 ,0,0,0.,1.2,0.,1.2,0.,1.2,,0.0,,0.0
1979-03-01 03:04:24.280 ,0,0,0.,1.2,0.,1.2,0.,1.2,,0.0,,0.0
1979-03-01 03:04:25.480 ,0,0,0.,1.2,0.,1.2,0.,1.2,,0.0,,0.0
1979-03-01 03:04:26.680 ,0,0,0.,1.2,0.,1.2,0.,1.2,,0.0,,0.0
1979-03-01 03:04:27.880 ,0,0,0.,1.2,0.,1.2,0.,1.2,,0.0,,0.0
1979-03-01 03:04:29.080 ,0,0,0.,1.2,0.,1.2,0.,1.2,,0.0,,0.0
1979-03-01 03:04:30.280 ,0,0,0.,1.2,0.,1.2,0.,1.2,,0.0,,0.0
1979-03-01 03:04:31.480 ,0,0,0.,1.2,0.,1.2,0.,1.2,,0.0,,0.0
1979-03-01 03:04:32.680 ,0,0,0.,1.2,0.,1.2,0.,1.2,,0.0,,0.0
1979-03-01 03:04:33.880 ,0,0,0.,1.2,0.,1.2,0.,1.2,,0.0,,0.0
1979-03-01 03:04:35.080 ,0,0,0.,1.2,0.,1.2,0.,1.2,,0.0,,0.0
1979-03-01 03:04:36.280 ,0,0,0.,1.2,0.,1.2,0.,1.2,,0.0,,0.0
1979-03-01 03:04:37.480 ,0,0,0.,1.2,0.,1.2,0.,1.2,,0.0,,0.0
1979-03-01 03:04:38.680 ,0,0,0.,1.2,0.,1.2,0.,1.2,,0.0,,0.0
1979-03-01 03:04:39.880 ,0,0,0.,1.2,0.,1.2,0.,1.2,,0.0,,0.0
1979-03-01 03:04:41.080 ,0,0,0.,1.2,0.,1.2,0.,1.2,,0.0,,0.0
1979-03-01 03:04:42.280 ,0,0,0.,1.2,0.,1.2,0.,1.2,,0.0,,0.0
1979-03-01 03:04:43.480 ,0,0,0.,1.2,0.,1.2,0.,1.2,,0.0,,0.0
1979-03-01 03:04:44.680 ,0,0,0.,1.2,0.,1.2,0.,1.2,,0.0,,0.0
1979-03-01 03:04:45.880 ,0,0,0.,1.2,0.,1.2,0.,1.2,,0.0,,0.0
1979-03-01 03:04:47.080 ,0,0,0.,1.2,0.,1.2,0.,1.2,,0.0,,0.0
1979-03-01 03:04:48.280 ,0,0,0.,1.2,0.,1.2,0.,1.2,,0.0,,0.0
1979-03-01 03:04:49.480 ,0,0,0.,1.2,0.,1.2,0.,1.2,,0.0,,0.0
1979-03-01 03:04:50.680 ,0,0,0.,1.2,0.,1.2,0.,1.2,,0.0,,0.0
1979-03-01 03:04:51.880 ,0,0,0.,1.2,0.,1.2,0.,1.2,,0.0,,0.0
1979-03-01 03:04:53.080 ,0,0,0.,1.2,0.,1.2,0.,1.2,,0.0,,0.0
1979-03-01 03:04:54.280 ,0,0,0.,1.2,0.,1.2,0.,1.2,,0.0,,0.0
1979-03-01 03:04:55.480 ,0,0,0.,1.2,0.,1.2,0.,1.2,,0.0,,0.0
1979-03-01 03:04:56.680 ,0,0,0.,1.2,0.,1.2,0.,1.2,,0.0,,0.0
1979-03-01 03:04:57.880 ,0,0,0.,1.2,0.,1.2,0.,1.2,,0.0,,0.0
1979-03-01 03:04:59.080 ,0,0,0.,1.2,0.,1.2,0.,1.2,,0.0,,0.0
1979-03-01 03:05:00.280 ,1,0,0.,1.2,0.,1.2,0.,1.2,,0.0,,0.0
1979-03-01 03:05:01.480 ,1,0,0.,1.2,0.,1.2,0.,1.2,,0.0,,0.0
1979-03-01 03:05:02.680 ,1,0,,0,,0,,0,,0,,0
1979-03-01 03:05:03.880 ,1,0,0.,1.2,0.,1.2,0.,1.2,,0.0,,0.0
1979-03-01 03:05:05.080 ,1,0,0.,1.2,0.,1.2,0.,1.2,,0.0,,0.0
1979-03-01 03:05:06.280 ,1,0,0.,1.2,0.,1.2,0.,1.2,,0.0,,0.0
1979-03-01 03:05:07.480 ,1,0,0.,1.2,0.,1.2,0.,1.2,,0.0,,0.0
1979-03-01 03:05:08.680 ,1,0,0.,1.2,0.,1.2,0.,1.2,,0.0,,0.0
1979-03-01 03:05:09.880 ,1,0,0.,1.2,0.,1.2,0.,1.2,,0.0,,0.0
1979-03-01 03:05:11.080 ,1,0,0.,1.2,0.,1.2,0.,1.2,,0.0,,0.0
1979-03-01 03:05:12.280 ,1,0,0.,1.2,0.,1.2,0.,1.2,,0.0,,0.0
1979-03-01 03:05:13.480 ,1,0,0.,1.2,0.,1.2,0.,1.2,,0.0,,0.0
1979-03-01 03:05:14.680 ,1,0,0.,1.2,0.,1.2,0.,1.2,,0.0,,0.0
1979-03-01 03:05:15.880 ,1,0,0.,1.2,0.,1.2,0.,1.2,,0.0,,0.0
1979-03-01 03:05:17.080 ,1,0,0.,1.2,0.,1.2,0.,1.2,,0.0,,0.0
1979-03-01 03:05:18.280 ,1,0,0.,1.2,0.,1.2,0.,1.2,,0.0,,0.0
1979-03-01 03:05:19.480 ,1,0,0.,1.2,0.,1.2,0.,1.2,,0.0,,0.0
1979-03-01 03:05:20.680 ,1,0,0.,1.2,0.,1.2,0.,1.2,,0.0,,0.0
1979-03-01 03:05:21.880 ,1,0,0.,1.2,0.,1.2,0.,1.2,,0.0,,0.0
1979-03-01 03:05:23.080 ,1,0,0.,1.2,0.,1.2,0.,1.2,,0.0,,0.0
1979-03-01 03:05:24.280 ,2,0,0.,1.2,0.,1.2,0.,1.2,,0.0,,0.0
1979-03-01 03:05:25.480 ,2,0,0.,1.2,0.,1.2,0.,1.2,,0.0,,0.0
1979-03-01 03:05:26.680 ,2,0,0.,1.2,0.,1.2,0.,1.2,,0.0,,0.0
1979-03-01 03:05:27.880 ,2,0,0.,1.2,0.,1.2,0.,1.2,,0.0,,0.0
1979-03-01 03:05:29.080 ,2,0,0.,1.2,0.,1.2,0.,1.2,,0.0,,0.0
1979-03-01 03:05:30.280 ,2,0,0.,1.2,0.,1.2,0.,1.2,,0.0,,0.0
1979-03-01 03:05:31.480 ,2,0,0.,1.2,0.,1.2,0.,1.2,,0.0,,0.0
1979-03-01 03:05:32.680 ,2,0,0.,1.2,0.,1.2,0.,1.2,,0.0,,0.0
1979-03-01 03:05:33.880 ,2,0,0.,1.2,0.,1.2,0.,1.2,,0.0,,0.0
1979-03-01 03:05:35.080 ,2,0,0.,1.2,0.,1.2,0.,1.2,,0.0,,0.0
1979-03-01 03:05:36.280 ,2,0,0.,1.2,0.,1.2,0.,1.2,,0.0,,0.0
1979-03-01 03:05:37.480 ,2,0,0.,1.2,0.,1.2,0.,1.2,,0.0,,0.0
1979-03-01 03:05:38.680 ,2,0,0.,1.2,0.,1.2,0.,1.2,,0.0,,0.0
1979-03-01 03:05:39.880 ,2,0,0.,1.2,0.,1.2,0.,1.2,,0.0,,0.0
1979-03-01 03:05:41.080 ,2,0,0.,1.2,0.,1.2,0.,1.2,,0.0,,0.0
1979-03-01 03:05:42.280 ,2,0,0.,1.2,0.,1.2,0.,1.2,,0.0,,0.0
1979-03-01 03:05:43.480 ,2,0,0.,1.2,0.,1.2,0.,1.2,,0.0,,0.0
1979-03-01 03:05:44.680 ,2,0,0.,1.2,0.,1.2,0.,1.2,,0.0,,0.0
1979-03-01 03:05:45.880 ,2,0,0.,1.2,0.,1.2,0.,1.2,,0.0,,0.0
1979-03-01 03:05:47.080 ,2,0,0.,1.2,0.,1.2,0.,1.2,,0.0,,0.0
1979-03-01 03:05:48.280 ,3,0,0.,1.2,0.,1.2,0.,1.2,,0.0,,0.0
1979-03-01 03:05:49.480 ,3,0,0.,1.2,0.,1.2,0.,1.2,,0.0,,0.0
1979-03-01 03:05:50.680 ,3,0,0.,1.2,0.,1.2,0.,1.2,,0.0,,0.0
1979-03-01 03:05:51.880 ,3,0,0.,1.2,0.,1.2,0.,1.2,,0.0,,0.0
1979-03-01 03:05:53.080 ,3,0,0.,1.2,0.,1.2,0.,1.2,,0.0,,0.0
1979-03-01 03:05:54.280 ,3,0,0.,1.2,0.,1.2,0.,1.2,,0.0,,0.0
1979-03-01 03:05:55.480 ,3,0,0.,1.2,0.,1.2,0.,1.2,,0.0,,0.0
1979-03-01 03:05:56.680 ,3,0,0.,1.2,0.,1.2,0.,1.2,,0.0,,0.0
1979-03-01 03:05:57.880 ,3,0,0.,1.2,0.,1.2,0.,1.2,,0.0,,0.0
1979-03-01 03:05:59.080 ,3,0,0.,1.2,0.,1.2,0.,1.2,,0.0,,0.0
1979-03-01 03:06:00.280 ,3,0,0.,1.2,0.,1.2,0.,1.2,,0.0,,0.0
1979-03-01 03:06:01.480 ,3,0,0.,1.2,0.,1.2,0.,1.2,,0.0,,0.0
1979-03-01 03:06:02.680 ,3,0,0.,1.2,0.,1.2,0.,1.2,,0.0,,0.0
1979-03-01 03:06:03.880 ,3,0,0.,1.2,0.,1.2,0.,1.2,,0.0,,0.0
1979-03-01 03:06:05.080 ,3,0,0.,1.2,0.,1.2,0.,1.2,,0.0,,0.0
1979-03-01 03:06:06.280 ,3,0,0.,1.2,0.,1.2,0.,1.2,,0.0,,0.0
1979-03-01 03:06:07.480 ,3,0,0.,1.2,0.,1.2,0.,1.2,,0.0,,0.0
1979-03-01 03:06:08.680 ,3,0,0.,1.2,0.,1.2,0.,1.2,,0.0,,0.0
1979-03-01 03:06:09.880 ,3,0,0.,1.2,0.,1.2,0.,1.2,,0.0,,0.0
1979-03-01 03:06:11.080 ,3,0,0.,1.2,0.,1.2,0.,1.2,,0.0,,0.0
1979-03-01 03:06:12.280 ,4,0,0.,1.2,0.,1.2,0.,1.2,,0.0,,0.0
1979-03-01 03:06:13.480 ,4,0,0.,1.2,0.,1.2,0.,1.2,,0.0,,0.0
1979-03-01 03:06:14.680 ,4,0,0.,1.2,0.,1.2,0.,1.2,,0.0,,0.0
1979-03-01 03:06:15.880 ,4,0,0.,1.2,0.,1.2,0.,1.2,,0.0,,0.0
1979-03-01 03:06:17.080 ,4,0,0.,1.2,0.,1.2,0.,1.2,,0.0,,0.0
1979-03-01 03:06:18.280 ,4,0,0.,1.2,0.,1.2,0.,1.2,,0.0,,0.0
1979-03-01 03:06:19.480 ,4,0,0.,1.2,0.,1.2,0.,1.2,,0.0,,0.0
1979-03-01 03:06:20.680 ,4,0,0.,1.2,0.,1.2,0.,1.2,,0.0,,0.0
1979-03-01 03:06:21.880 ,4,0,0.,1.2,0.,1.2,0.,1.2,,0.0,,0.0
1979-03-01 03:06:23.080 ,4,0,0.,1.2,0.,1.2,0.,1.2,,0.0,,0.0
1979-03-01 03:06:24.280 ,4,0,0.,1.2,0.,1.2,0.,1.2,,0.0,,0.0
1979-03-01 03:06:25.480 ,4,0,0.,1.2,0.,1.2,0.,1.2,,0.0,,0.0
1979-03-01 03:06:26.680 ,4,0,0.,1.2,0.,1.2,0.,1.2,,0.0,,0.0
1979-03-01 03:06:27.880 ,4,0,0.,1.2,0.,1.2,0.,1.2,,0.0,,0.0
1979-03-01 03:06:29.080 ,4,0,0.,1.2,0.,1.2,0.,1.2,,0.0,,0.0
1979-03-01 03:06:30.280 ,4,0,0.,1.2,0.,1.2,0.,1.2,,0.0,,0.0
1979-03-01 03:06:31.480 ,4,0,0.,1.2,0.,1.2,0.,1.2,,0.0,,0.0
1979-03-01 03:06:32.680 ,4,0,0.,1.2,0.,1.2,0.,1.2,,0.0,,0.0
1979-03-01 03:06:33.880 ,4,0,0.,1.2,0.,1.2,0.,1.2,,0.0,,0.0
1979-03-01 03:06:35.080 ,4,0,0.,1.2,0.,1.2,0.,1.2,,0.0,,0.0
1979-03-01 03:06:36.280 ,5,0,0.,1.2,0.,1.2,0.,1.2,,0.0,,0.0
1979-03-01 03:06:37.480 ,5,0,0.,1.2,0.,1.2,0.,1.2,,0.0,,0.0
1979-03-01 03:06:38.680 ,5,0,0.,1.2,0.,1.2,0.,1.2,,0.0,,0.0
1979-03-01 03:06:39.880 ,5,0,0.,1.2,0.,1.2,0.,1.2,,0.0,,0.0
1979-03-01 03:06:41.080 ,5,0,0.,1.2,0.,1.2,0.,1.2,,0.0,,0.0
1979-03-01 03:06:42.280 ,5,0,0.,1.2,0.,1.2,0.,1.2,,0.0,,0.0
1979-03-01 03:06:43.480 ,5,0,0.,1.2,0.,1.2,0.,1.2,,0.0,,0.0
1979-03-01 03:06:44.680 ,5,0,0.,1.2,0.,1.2,0.,1.2,,0.0,,0.0
1979-03-01 03:06:45.880 ,5,0,0.,1.2,0.,1.2,0.,1.2,,0.0,,0.0
1979-03-01 03:06:47.080 ,5,0,0.,1.2,0.,1.2,0.,1.2,,0.0,,0.0
1979-03-01 03:06:48.280 ,5,0,0.,1.2,0.,1.2,0.,1.2,,0.0,,0.0
1979-03-01 03:06:49.480 ,5,0,0.,1.2,0.,1.2,0.,1.2,,0.0,,0.0
1979-03-01 03:06:50.680 ,5,0,0.,1.2,0.,1.2,0.,1.2,,0.0,,0.0
1979-03-01 03:06:51.880 ,5,0,0.,1.2,0.,1.2,0.,1.2,,0.0,,0.0
1979-03-01 03:06:53.080 ,5,0,0.,1.2,0.,1.2,0.,1.2,,0.0,,0.0
1979-03-01 03:06:54.280 ,5,0,0.,1.2,0.,1.2,0.,1.2,,0.0,,0.0
1979-03-01 03:06:55.480 ,5,0,0.,1.2,0.,1.2,0.,1.2,,0.0,,0.0
1979-03-01 03:06:56.680 ,5,0,0.,1.2,0.,1.2,0.,1.2,,0.0,,0.0
1979-03-01 03:06:57.880 ,5,0,0.,1.2,0.,1.2,0.,1.2,,0.0,,0.0
1979-03-01 03:06:59.080 ,5,0,0.,1.2,0.,1.2,0.,1.2,,0.0,,0.0
1979-03-01 03:07:00.280 ,6,0,0.,1.2,0.,1.2,0.,1.2,,0.0,,0.0
1979-03-01 03:07:01.480 ,6,0,0.,1.2,0.,1.2,0.,1.2,,0.0,,0.0
1979-03-01 03:07:02.680 ,6,0,0.,1.2,0.,1.2,0.,1.2,,0.0,,0.0
1979-03-01 03:07:03.880 ,6,0,0.,1.2,0.,1.2,0.,1.2,,0.0,,0.0
1979-03-01 03:07:05.080 ,6,0,0.,1.2,0.,1.2,0.,1.2,,0.0,,0.0
1979-03-01 03:07:06.280 ,6,0,0.,1.2,0.,1.2,0.,1.2,,0.0,,0.0
1979-03-01 03:07:07.480 ,6,0,0.,1.2,0.,1.2,0.,1.2,,0.0,,0.0
1979-03-01 03:07:08.680 ,6,0,0.,1.2,0.,1.2,0.,1.2,,0.0,,0.0
1979-03-01 03:07:09.880 ,6,0,0.,1.2,0.,1.2,0.,1.2,,0.0,,0.0
1979-03-01 03:07:11.080 ,6,0,0.,1.2,0.,1.2,0.,1.2,,0.0,,0.0
1979-03-01 03:07:12.280 ,6,0,0.,1.2,0.,1.2,0.,1.2,,0.0,,0.0
1979-03-01 03:07:13.480 ,6,0,0.,1.2,0.,1.2,0.,1.2,,0.0,,0.0
1979-03-01 03:07:14.680 ,6,0,0.,1.2,0.,1.2,0.,1.2,,0.0,,0.0
1979-03-01 03:07:15.880 ,6,0,0.,1.2,0.,1.2,0.,1.2,,0.0,,0.0
1979-03-01 03:07:17.080 ,6,0,0.,1.2,0.,1.2,0.,1.2,,0.0,,0.0
1979-03-01 03:07:18.280 ,6,0,0.,1.2,0.,1.2,0.,1.2,,0.0,,0.0
1979-03-01 03:07:19.480 ,6,0,0.,1.2,0.,1.2,0.,1.2,,0.0,,0.0
1979-03-01 03:07:20.680 ,6,0,0.,1.2,0.,1.2,0.,1.2,,0.0,,0.0
1979-03-01 03:07:21.880 ,6,0,0.,1.2,0.,1.2,0.,1.2,,0.0,,0.0
1979-03-01 03:07:23.080 ,6,0,0.,1.2,0.,1.2,0.,1.2,,0.0,,0.0
1979-03-01 03:07:24.280 ,7,0,0.,1.2,0.,1.2,0.,1.2,,0.0,,0.0
1979-03-01 03:07:25.480 ,7,0,0.,1.2,0.,1.2,0.,1.2,,0.0,,0.0
1979-03-01 03:07:26.680 ,7,0,0.,1.2,0.,1.2,0.,1.2,,0.0,,0.0
1979-03-01 03:07:27.880 ,7,0,0.,1.2,0.,1.2,0.,1.2,,0.0,,0.0
1979-03-01 03:07:29.080 ,7,0,0.,1.2,0.,1.2,0.,1.2,,0.0,,0.0
1979-03-01 03:07:30.280 ,7,0,0.,1.2,0.,1.2,0.,1.2,,0.0,,0.0
1979-03-01 03:07:31.480 ,7,0,,0,,0,,0,,0,,0
1979-03-01 03:07:32.680 ,7,0,,0,,0,,0,,0,,0
1979-03-01 03:07:33.880 ,7,0,0.,1.2,0.,1.2,0.,1.2,,0.0,,0.0
1979-03-01 03:07:35.080 ,7,0,0.,1.2,0.,1.2,0.,1.2,,0.0,,0.0
1979-03-01 03:07:36.280 ,7,0,0.,1.2,0.,1.2,0.,1.2,,0.0,,0.0
1979-03-01 03:07:37.480 ,7,0,0.,1.2,0.,1.2,0.,1.2,,0.0,,0.0
1979-03-01 03:07:38.680 ,7,0,0.,1.2,0.,1.2,0.,1.2,,0.0,,0.0
1979-03-01 03:07:39.880 ,7,0,0.,1.2,0.,1.2,0.,1.2,,0.0,,0.0
1979-03-01 03:07:41.080 ,7,0,0.,1.2,0.,1.2,0.,1.2,,0.0,,0.0
1979-03-01 03:07:42.280 ,7,0,0.,1.2,0.,1.2,0.,1.2,,0.0,,0.0
1979-03-01 03:07:43.480 ,7,0,0.,1.2,0.,1.2,0.,1.2,,0.0,,0.0
1979-03-01 03:07:44.680 ,7,0,0.,1.2,0.,1.2,0.,1.2,,0.0,,0.0
1979-03-01 03:07:45.880 ,7,0,0.,1.2,0.,1.2,0.,1.2,,0.0,,0.0
1979-03-01 03:07:47.080 ,7,0,0.,1.2,0.,1.2,0.,1.2,,0.0,,0.0
1979-03-01 03:07:48.280 ,7,0,0.,1.2,0.,1.2,0.,1.2,,0.0,,0.0
1979-03-01 03:07:49.480 ,7,0,0.,1.2,0.,1.2,0.,1.2,,0.0,,0.0
1979-03-01 03:07:50.680 ,7,0,0.,1.2,0.,1.2,0.,1.2,,0.0,,0.0
1979-03-01 03:07:51.880 ,7,0,0.,1.2,0.,1.2,0.,1.2,,0.0,,0.0
1979-03-01 03:07:53.080 ,7,0,0.,1.2,0.,1.2,0.,1.2,,0.0,,0.0
1979-03-01 03:07:54.280 ,7,0,0.,1.2,0.,1.2,0.,1.2,,0.0,,0.0
1979-03-01 03:07:55.480 ,7,0,0.,1.2,0.,1.2,0.,1.2,,0.0,,0.0
1979-03-01 03:07:56.680 ,7,0,0.,1.2,0.,1.2,0.,1.2,,0.0,,0.0
1979-03-01 03:07:57.880 ,7,0,0.,1.2,0.,1.2,0.,1.2,,0.0,,0.0
1979-03-01 03:07:59.080 ,7,0,0.,1.2,0.,1.2,0.,1.2,,0.0,,0.0
1979-03-01 03:08:00.280 ,7,0,0.,1.2,0.,1.2,0.,1.2,,0.0,,0.0
1979-03-01 03:08:01.480 ,7,0,0.,1.2,0.,1.2,0.,1.2,,0.0,,0.0
1979-03-01 03:08:02.680 ,7,0,0.,1.2,0.,1.2,0.,1.2,,0.0,,0.0